NOAA 16 DEB, 41429

Orbit data source: Space-Track

NOAA 16 DEB, 41429 is space debris in SSO originally from a launch on Thu, 21 Sep 2000 UTC launched from the Air Force Western Test Range (AFWTR). Debris objects in space refer to the collection of defunct objects orbiting the Earth. Examples of debris include non-operational satellites, rocket bodies, and fragments generated from explosions, collisions, or faulty payload assembly.

Loading next visibility...
Identifier
41429, 2000-055LJ
Orbit
SSO
Country
Flag of USUS
Related business
Manufacturer
Unknown
Mission
Spacecraft
Bus & Motor
Unknown
Mass
Unknown
Launch date (UTC)
2000-09-21 (25 years ago)
Launch vehicle
Unknown
Launch site
Air Force Western Test Range (AFWTR)
Object type
Payload
Rocket body
Debris
Shape & HBR
Unknown shape, 0.1 m
Radar Cross Section
Small (<0.1 m²)

Expand to show TLE details & history
Last TLE update: 11 hours ago

TLE from 11 hours ago
0 NOAA 16 DEB
1 41429U 00055LJ  25293.18845485  .00007696  00000-0  31172-2 0  9998
2 41429  98.7203  14.7818 0014882 322.2945  37.7192 14.27936317498812
Epoch: 2025-10-20T04:31Z
TLE epoch observation values (Epoch: 2025-10-20T04:31:22.499Z)
Latitude
0.00002°
Longitude
-81.9563°
Altitude
793.118 km
Speed
7.461 km/s
True Right ascension
00h 59m 07s
True Declination
0° 00' 00"
Sunlit
Object was in full shadow at epoch
Visualization orbit readout
Latitude
Unknown
Longitude
Unknown
Altitude
Unknown
Speed
Unknown
Apparent Right ascension
Unknown
Apparent Declination
Unknown
Sunlit
N/A
Visualization observer readout
Local Sidereal Time
10:07:50
Azimuth
Unknown
Elevation
Unknown
Doppler factor
Unknown
Orbital elements
Apogee altitude
806.462 km
Perigee altitude
785.109 km
Semi-major axis
7,173.923 km
Eccentricity
0.00149
Inclination
98.7203°
RAAN
14.7818°
Arg. of periapsis
322.2945°
True anomaly
37.82369°
Mean anomaly
37.7192°
Eccentric anomaly
37.77143°
Mean motion
3.57197 °/min
Orbital period
100.78 mins
BSTAR
0.0031172
Loading maneuver chart data...
Computing Atmospheric mass density...
Loading historical data...
Loading historical data...
Loading historical data...
Loading historical data...
Loading historical data...
Loading historical data...
Loading historical data...

Documentation

Showing up to 5 results
|